TimeMDT,TemperatureF,Dew PointF,Humidity,Sea Level PressureIn,VisibilityMPH,Wind Direction,Wind SpeedMPH,Gust SpeedMPH,PrecipitationIn,Events,Conditions,WindDirDegrees,DateUTC
12:46 AM,51.8,50.0,94,30.05,10.0,SE,3.5,-,N/A,,Mostly Cloudy,130,2013-06-12 06:46:00
12:54 AM,52.0,50.0,93,30.01,10.0,SE,4.6,-,N/A,,Mostly Cloudy,130,2013-06-12 06:54:00
1:19 AM,50.0,48.2,94,30.06,10.0,ESE,4.6,-,N/A,,Scattered Clouds,120,2013-06-12 07:19:00
1:54 AM,50.0,50.0,100,30.02,10.0,Calm,Calm,-,N/A,,Mostly Cloudy,0,2013-06-12 07:54:00
2:10 AM,51.8,50.0,94,30.07,10.0,Calm,Calm,-,N/A,,Overcast,0,2013-06-12 08:10:00
2:54 AM,48.0,48.0,100,30.03,10.0,East,4.6,-,N/A,,Scattered Clouds,100,2013-06-12 08:54:00
3:54 AM,46.9,46.9,100,30.05,10.0,ESE,5.8,-,N/A,,Clear,120,2013-06-12 09:54:00
4:54 AM,46.9,46.0,97,30.07,10.0,SE,5.8,-,N/A,,Clear,140,2013-06-12 10:54:00
5:54 AM,48.0,46.0,93,30.05,10.0,East,10.4,-,N/A,,Clear,100,2013-06-12 11:54:00
6:54 AM,50.0,48.9,96,30.05,10.0,ESE,5.8,-,N/A,,Clear,120,2013-06-12 12:54:00
7:54 AM,55.0,51.1,86,30.02,10.0,East,6.9,-,N/A,,Clear,100,2013-06-12 13:54:00
8:54 AM,60.1,53.1,78,30.00,10.0,ESE,13.8,-,N/A,,Clear,120,2013-06-12 14:54:00
9:54 AM,61.0,54.0,78,29.98,10.0,East,16.1,-,N/A,,Clear,90,2013-06-12 15:54:00
10:54 AM,64.9,55.0,70,29.96,10.0,ESE,16.1,-,N/A,,Clear,110,2013-06-12 16:54:00
11:54 AM,68.0,54.0,61,29.93,10.0,East,13.8,-,N/A,,Clear,90,2013-06-12 17:54:00
12:39 PM,71.6,50.0,46,29.98,10.0,South,11.5,-,N/A,,Clear,180,2013-06-12 18:39:00
12:54 PM,72.0,48.9,44,29.91,10.0,South,11.5,-,N/A,,Clear,180,2013-06-12 18:54:00
1:54 PM,70.0,54.0,57,29.91,10.0,East,8.1,19.6,N/A,,Clear,80,2013-06-12 19:54:00
2:54 PM,72.0,55.0,55,29.89,10.0,East,12.7,-,N/A,,Clear,90,2013-06-12 20:54:00
3:54 PM,73.0,55.9,55,29.88,10.0,East,11.5,18.4,N/A,,Clear,80,2013-06-12 21:54:00
4:54 PM,75.0,55.0,50,29.85,10.0,East,9.2,-,N/A,,Clear,100,2013-06-12 22:54:00
5:54 PM,69.1,52.0,54,29.86,10.0,SSW,8.1,-,N/A,,Clear,210,2013-06-12 23:54:00
6:54 PM,66.0,54.0,65,29.92,10.0,NNW,10.4,-,N/A,,Clear,340,2013-06-13 00:54:00
7:54 PM,62.1,48.9,62,29.93,10.0,North,11.5,19.6,N/A,,Mostly Cloudy,10,2013-06-13 01:54:00
8:54 PM,61.0,53.1,75,29.95,10.0,NNW,4.6,-,N/A,,Overcast,330,2013-06-13 02:54:00
9:54 PM,61.0,54.0,78,29.91,10.0,East,11.5,-,N/A,,Clear,90,2013-06-13 03:54:00
10:54 PM,60.1,54.0,80,29.95,10.0,West,10.4,-,N/A,,Scattered Clouds,260,2013-06-13 04:54:00
11:54 PM,55.0,51.1,86,29.96,10.0,WSW,5.8,-,N/A,,Mostly Cloudy,240,2013-06-13 05:54:00